Dewpoint
68 67 65 70 61 56 44 45 45 45 45 45 40 37 39 41 46 53 62 59 60 66 69 71 73 71 70 70 70 66 66 66 68 68 68 67 67 67 66 67 70 71 71 72 72 72 72 72 72
63 60 69 66 54 47 43 42 46 46 45 43 44 42 41 43 50 55 58 59 59 62 67 70 72 71 71 71 70 67 67 66 66 67 67 66 65 64 63 64 66 66 67 69 71 72 72 72 71
61 60 63 59 53 48 43 45 46 45 44 45 45 44 45 49 49 53 56 57 58 66 68 71 72 71 70 71 69 68 67 67 66 65 65 64 63 63 64 65 64 63 63 65 67 69 71 71 72
60 63 59 51 49 52 44 45 45 44 45 44 44 43 51 52 50 51 54 54 58 65 68 73 72 71 71 70 70 69 68 68 68 67 67 67 64 65 67 68 68 67 66 65 63 64 68 69 69
58 60 54 49 46 45 42 43 45 42 42 42 43 44 50 54 51 52 53 56 57 63 67 71 72 71 70 71 70 69 69 68 69 68 67 68 68 69 69 69 69 69 69 68 68 65 64 65 68
57 57 48 45 48 43 41 40 40 36 38 41 42 47 50 53 53 54 55 56 57 60 66 69 72 71 71 71 71 71 71 71 70 71 71 69 69 70 70 70 70 70 70 69 69 68 67 66 65
55 54 48 44 48 44 41 40 37 37 35 38 41 46 51 53 56 55 56 56 58 60 63 67 68 70 72 71 72 72 71 71 71 70 70 71 70 69 69 69 69 68 68 67 66 66 66 65 65
57 56 49 46 45 42 40 41 36 38 40 43 42 43 48 53 56 56 56 56 57 60 63 65 67 68 69 70 71 70 69 69 69 68 69 67 64 62 61 60 61 61 60 59 59 60 62 63 64
56 51 46 44 43 42 39 39 40 34 33 37 41 49 50 56 57 56 55 55 55 57 63 65 66 68 68 67 67 67 66 63 63 63 65 66 52 53 51 52 53 52 52 51 52 55 59 62 65
50 49 46 45 43 42 40 40 32 30 30 35 41 47 56 57 57 55 54 54 55 57 63 62 65 67 67 61 57 52 50 51 49 47 46 46 44 42 46 53 56 53 53 56 56 57 56 50 43
49 46 46 47 44 43 38 39 34 32 35 36 39 43 51 55 56 56 54 54 53 55 60 64 66 65 58 54 51 50 49 45 37 33 35 34 35 36 37 40 41 41 46 37 39 37 38 35 35
48 44 44 47 45 42 37 36 33 34 41 35 37 43 49 51 53 54 53 53 56 59 59 63 65 62 54 53 50 43 36 35 34 33 32 34 37 34 34 37 38 37 37 32 34 36 30 30 28
48 47 43 39 43 38 37 36 39 34 37 34 37 44 46 48 51 52 53 53 57 59 59 59 56 51 50 43 37 34 33 33 36 35 32 36 37 33 35 32 35 34 34 32 32 31 30 29 29
41 46 42 39 40 37 37 38 37 37 36 35 35 40 44 46 48 51 52 53 55 56 55 52 52 46 39 34 32 32 35 38 38 38 34 34 36 33 36 35 36 35 35 32 31 29 31 31 31
41 43 43 43 42 35 35 37 35 37 36 34 35 38 41 45 48 50 53 52 53 53 52 49 40 35 29 31 34 36 37 38 38 37 33 34 38 35 37 37 36 36 36 35 35 32 33 33 32
42 45 41 42 41 40 35 39 36 34 33 32 34 35 40 43 46 49 51 51 50 44 40 34 31 29 30 30 33 33 34 36 37 36 36 34 35 36 37 39 38 36 38 38 36 36 35 34 34
42 40 42 39 44 41 39 37 35 31 30 31 31 32 39 40 44 46 49 47 41 36 31 31 30 29 30 27 29 31 31 35 35 36 37 35 34 34 38 38 37 37 39 39 38 37 36 35 34
37 36 40 42 47 45 44 39 38 40 29 29 29 29 34 38 40 41 44 41 34 30 29 29 30 27 26 29 29 32 32 33 34 35 36 33 35 34 36 38 37 37 38 39 37 35 36 36 36
38 39 39 38 36 43 44 39 39 38 32 33 32 30 29 35 38 39 38 35 30 28 28 29 28 25 29 30 33 33 34 34 35 36 31 31 33 33 34 38 36 37 37 36 37 37 36 36 36
37 37 41 41 30 32 37 40 41 40 32 32 30 29 30 30 34 35 35 32 28 27 27 28 27 27 31 33 34 35 35 37 37 40 36 35 34 34 32 33 35 35 36 35 36 37 38 37 36
37 36 37 34 32 38 38 32 31 28 28 29 28 31 31 31 30 32 32 31 31 28 29 27 27 28 32 33 36 36 38 38 38 38 38 38 35 33 32 32 33 33 35 36 36 36 36 35 35
35 35 37 34 31 31 28 23 25 26 27 25 28 31 32 33 32 32 31 31 30 31 31 29 29 28 30 34 35 36 38 37 39 40 41 40 35 33 32 32 33 33 34 34 35 33 33 33 32
34 35 37 37 29 25 26 23 22 24 25 25 29 31 32 33 33 32 31 31 30 31 32 30 29 28 30 32 37 39 39 40 41 38 36 36 35 33 33 32 32 32 35 34 33 32 32 33 32
32 31 30 32 27 21 19 20 20 22 21 26 29 30 32 32 32 31 31 31 31 35 36 35 32 31 32 33 33 38 38 39 39 39 37 37 36 36 33 32 33 34 34 33 33 33 32 32 32
32 28 27 26 25 22 19 18 21 21 26 27 29 29 31 31 32 30 31 31 33 35 36 36 36 36 33 32 34 35 39 39 38 35 34 33 34 34 34 34 33 32 32 33 34 33 33 32 31
29 28 23 19 20 21 24 18 20 23 28 29 29 30 30 32 33 32 32 31 31 33 35 36 34 34 34 33 34 34 34 36 35 34 34 33 33 34 34 32 32 30 30 30 30 31 32 31 31
27 26 29 20 15 14 17 19 20 22 25 27 27 29 31 30 30 30 30 30 31 31 31 31 32 33 33 32 31 29 29 32 33 32 31 34 33 33 30 31 31 30 29 28 28 30 29 30 30
29 26 24 22 15 15 14 18 18 20 22 24 25 26 28 28 28 29 28 29 28 29 28 28 28 28 28 28 28 29 29 29 30 31 31 31 31 31 31 30 28 28 27 26 26 28 29 30 31
26 24 24 23 21 15 13 17 18 20 20 21 23 25 26 26 26 26 26 28 28 27 26 26 26 26 27 29 30 29 30 29 29 30 30 30 30 28 26 26 26 25 25 24 25 25 27 29 30
24 24 22 21 17 17 16 19 17 19 20 22 24 26 27 28 28 27 26 26 26 27 28 27 26 26 28 29 29 28 29 30 30 29 28 27 24 25 24 24 24 24 24 25 26 28 29 30 31
Lifted_Index
-1 -2 -3 -4 -3 -1 1 2 2 2 2 3 4 4 5 4 3 1 1 1 1 -0 -2 -2 -2 -1 -0 1 2 3 4 4 3 2 2 2 3 3 3 2 1 -0 -1 -2 -2 -3 -3 -3 -3
-1 -2 -3 -4 -3 -1 1 1 2 2 2 3 3 4 4 4 3 2 1 1 1 -0 -2 -2 -2 -1 -0 0 2 3 3 3 3 3 3 3 4 4 4 3 2 2 1 -0 -1 -2 -3 -3 -3
-1 -2 -3 -3 -3 -1 0 1 1 2 2 3 3 3 3 3 3 2 2 2 1 -1 -2 -2 -2 -1 0 1 1 2 3 3 3 3 3 4 4 4 4 3 3 3 3 2 1 -0 -1 -2 -2
-1 -2 -3 -3 -2 -1 -0 1 1 2 2 2 2 2 2 2 2 3 2 2 1 -1 -2 -2 -1 -1 0 0 1 2 2 2 2 3 3 3 3 3 2 2 1 2 2 2 2 2 0 -1 -1
-1 -2 -3 -2 -1 -1 0 1 2 2 3 2 2 2 1 2 2 3 2 2 1 -0 -1 -2 -1 -1 -0 0 0 1 1 1 1 1 1 1 1 1 1 0 -0 -0 0 1 1 2 1 1 0
-1 -2 -3 -2 -1 -0 0 1 2 3 3 3 2 2 1 2 2 2 2 1 1 0 -1 -1 -1 -1 -0 -0 -0 -0 0 0 0 0 0 0 0 0 0 -0 -0 -0 -0 -0 0 1 1 1 1
-2 -2 -3 -2 -1 -0 0 1 2 3 3 3 2 2 1 1 1 1 1 1 1 0 -0 -0 -1 -1 -0 -1 -0 -0 0 0 0 0 -0 0 1 1 1 1 1 1 1 1 1 1 1 1 1
-2 -2 -3 -2 -1 -0 0 1 2 3 3 3 2 2 1 1 0 1 1 1 1 1 0 -0 -0 -0 -0 -0 0 1 1 1 2 2 1 2 3 3 2 3 3 3 3 3 3 3 2 2 2
-1 -2 -2 -2 -1 -0 0 1 1 3 3 3 2 1 0 -0 -0 0 1 1 1 1 0 -0 -0 -0 0 1 1 2 3 4 5 5 5 5 6 6 6 6 6 6 6 6 6 6 5 5 5
-1 -1 -2 -2 -1 -0 0 0 1 2 3 3 2 1 -0 -1 -1 -0 0 1 1 1 0 -0 -0 0 1 2 3 4 5 7 8 9 9 9 10 10 10 10 10 10 10 10 10 10 10 10 10
-1 -1 -2 -2 -1 -0 0 0 1 2 2 2 2 2 0 -1 -1 -1 -0 1 1 0 -0 -0 -0 1 2 4 5 7 9 10 12 13 13 13 14 14 14 14 14 13 14 14 14 14 14 14 14
-1 -1 -1 -1 -0 -0 0 1 1 1 1 2 2 2 1 0 -0 -1 -0 0 0 0 -0 -0 0 1 3 5 7 9 12 13 14 15 15 15 15 15 15 15 15 15 15 15 15 15 15 15 15
-1 -0 -0 0 0 0 1 1 1 1 1 1 2 2 2 1 0 -0 -0 0 0 0 0 0 1 3 5 7 9 11 13 15 15 16 16 15 15 15 15 15 15 15 15 15 15 15 15 15 15
0 0 1 1 0 1 1 1 0 0 1 1 2 3 3 2 1 0 0 0 1 1 1 2 3 6 8 9 11 13 14 15 15 15 15 15 14 14 14 14 14 14 15 15 15 15 15 15 15
0 0 0 1 1 1 1 1 0 0 1 1 2 3 3 2 2 1 0 1 1 2 3 4 6 9 11 12 13 14 14 15 15 15 15 14 14 14 14 14 14 14 14 14 14 14 14 14 14
0 -0 -0 0 1 1 1 0 0 1 1 2 2 4 4 3 2 2 1 2 3 4 5 7 9 11 12 13 14 14 14 14 14 14 14 14 14 13 13 13 13 13 14 14 14 14 14 14 14
-1 -1 -1 -0 0 0 0 0 0 1 2 2 3 4 4 4 3 3 3 3 4 6 8 9 11 12 13 13 14 14 14 14 13 13 13 13 13 13 13 13 13 13 13 13 13 14 14 14 14
-1 -1 -1 -1 -1 -0 -0 0 1 1 2 3 4 5 4 4 4 4 4 5 6 8 10 11 12 12 13 13 14 14 13 13 13 12 12 13 13 13 13 13 13 13 13 13 13 13 14 14 14
-2 -2 -2 -1 -1 -0 -0 0 1 2 2 4 4 5 5 5 5 5 5 6 8 10 11 11 12 12 13 13 13 12 12 12 12 12 12 12 12 12 12 12 12 13 13 13 13 13 14 14 14
-2 -2 -2 -1 -0 0 0 1 1 2 3 4 5 5 5 5 5 5 6 7 9 10 11 11 11 12 12 12 12 11 11 11 11 11 11 11 11 12 12 12 12 12 12 13 13 13 14 14 14
-2 -1 -1 -1 0 1 1 1 2 2 3 5 5 6 6 5 6 6 6 8 9 10 11 11 11 11 11 11 11 10 10 10 10 10 10 10 10 11 11 12 12 12 12 12 13 13 14 14 14
-1 -1 -1 -1 -0 1 2 2 3 4 4 5 6 6 6 6 6 6 7 8 9 10 10 10 10 10 10 10 10 10 9 9 9 9 9 9 9 10 11 11 12 12 12 12 12 13 13 14 14
-1 -0 -0 -0 0 1 2 2 3 4 5 5 5 6 6 6 6 6 7 8 8 9 9 9 10 10 10 9 9 9 9 8 8 8 8 9 9 10 11 11 11 12 12 12 12 13 13 13 13
-0 -0 0 1 1 1 2 3 3 4 4 5 5 6 6 6 6 6 7 7 8 8 9 9 9 9 9 9 9 9 8 8 8 8 8 9 9 10 10 11 11 11 11 12 12 12 13 13 13
1 1 0 0 1 1 2 3 3 4 4 5 6 6 7 6 6 6 7 7 7 8 8 8 8 8 8 8 8 8 8 8 8 8 8 9 9 9 10 10 10 11 11 12 12 13 13 13 13
2 1 1 0 0 1 2 2 3 4 5 5 6 7 7 7 6 6 6 7 7 7 7 7 7 8 8 8 8 8 8 8 8 9 9 9 9 9 10 10 10 11 11 12 13 13 13 13 13
2 2 1 1 1 1 1 2 3 4 5 6 6 7 7 7 7 6 6 6 7 7 7 8 8 8 8 8 8 8 8 9 9 9 9 9 9 10 10 10 11 11 12 12 13 13 13 13 13
2 2 2 2 1 1 1 2 3 4 4 5 6 7 7 7 7 7 7 7 8 8 8 9 9 9 9 9 9 9 9 9 9 9 9 9 9 10 10 11 11 12 12 12 13 13 13 12 12
3 3 3 2 2 1 1 2 3 4 4 5 6 6 7 7 8 8 8 8 9 9 9 9 9 9 10 10 9 9 9 9 9 9 9 9 9 10 10 11 11 12 12 12 12 12 12 12 11
3 3 3 2 2 2 1 2 4 5 5 6 6 7 7 7 8 8 9 9 9 9 9 9 9 10 10 10 10 10 9 9 9 9 9 9 9 10 11 11 11 12 12 12 12 12 11 11 11